Airfield :
LOGIN :

Register | Disclaimer

   EN    FR    IT 

 










Legend :    VFR   Marginal VFR   IFR   Intensive IFR   Very Intensive IFR
Visi :
Ceiling :
>= 8 km
>= 3000ft
5 to 8 km
1000 to 3000 ft
1500m to 5 km
500 to 1000 ft
800 to 1500m
200 to 500 ft
< 800m
< 200 ft
Symbols :   Thunderstorms  Fog  Heavy snow  Heavy precipitations  Wind > 20 kt
SIGMETs :     Misc.  Thunderstorms  Icing  Turbulence  Mountain Waves  Volcanic Ashes







- Airport Elevation : 459 ft
- IATA code : CER
- Download approach charts


LFRC - Cherbourg / Maupertus

CURRENT METAR :
  • 200530Z AUTO 16005KT 6000 NSC 09/08 Q1021 NOSIG

EXPIRED METARs :
  • 200500Z AUTO 17003KT 7000 NSC 09/09 Q1021
  • 200430Z AUTO 17006KT 8000 NSC 09/09 Q1021
  • 200400Z AUTO 17004KT 9999 SCT018 SCT024 BKN032 09/08 Q1021
  • 200330Z AUTO 18005KT 9999 FEW042 09/09 Q1021
  • 200300Z AUTO 19006KT CAVOK 09/08 Q1022

TAF TAF LFRC
Valid from the 20 at 06:00 until the 20 at 15:00 UTC


200500Z 2006/2015 17005KT 9999 SCT040
BECMG 2009/2011 21010KT
No reported NOTAMs for that airfield.



MET'MAP, your aeronautical weather chart ! - Copyright ORBIFLY December 2007 - Disclaimer

ORBIFLY MET'MAP TEAM :

Programming & Development : Alexandra Zaïnal
Concept & Development : Baudouin d'Aumeries
Co-Development & Prog : Marc-Olivier Méhu
Technical & hardware support : Manuel Goepfert

Contact : metmap@orbifly.com




SOURCES & CREDITS :

   NOAA